Weather in Staritsa

Russia / Tver Oblast     56°30′53″N   34°56′00″E
temp.,
°C
wind,
m/s
gust,
m/s
humid.,
%
clouds,
%
prec.,
mm/h
press.,
hPa
HPBL,
m
27 october, wed
wed2700:00+3sw51379100 0.0 1016424
03:00+2sw51382100 0.0 1015400
06:00+3sw51382100 0.0 1013433
09:00+3sw51381100 0.0 1012476
12:00+4wsw51290100 1.3 1012522
15:00+5w51186100 1.6 1012882
18:00+6wsw51186100 0.0 1013536
21:00+6wsw41185100 0.0 1013477
28 october, thu
thu2800:00+4sw41096100 0.0 1012323
03:00+5ssw51295100 0.4 1009420
06:00+6sw61594100 1.0 1006727
09:00+9w51494100 1.9 1007766
12:00+10wnw61281100 0.1 1009906
15:00+8nw61087100 0.3 1013965
18:00+6n5887100 0.1 10181010
21:00+5n3786100 0.2 1022447
29 october, fri
fri2900:00+5nne1489100 0.0 1025156
03:00+5e0088100 0.0 102613
06:00+4sse2390100 0.0 102875
09:00+4ssw2786100 0.0 1028255
12:00+7ssw51075100 0.0 1028570
15:00+8sw5107397 0.0 1027574
18:00+6sw512815 0.0 1027389
21:00+5sw4119073 0.0 1028302
30 october, sat
sat3000:00+5sw41291100 0.0 1028310
03:00+5sw41389100 0.0 1028327
06:00+4sw4138971 0.0 1028315
09:00+4sw413875 0.0 1028326
12:00+8sw5127333 0.0 1027421
15:00+9ssw5127175 0.0 1027529
18:00+6ssw51383100 0.0 1026400
21:00+6ssw5148595 0.0 1026413
31 october, sun
sun3100:00+5sw515877 0.0 1026445
03:00+5ssw514905 0.0 1025394
06:00+4sw514915 0.0 1024357
09:00+5ssw513905 0.0 1024355
12:00+8sw512775 0.0 1024453
15:00+9ssw4107621 0.0 1023574
18:00+7ssw41285100 0.0 1023399
21:00+7ssw51482100 0.0 1022448